ARIANE 5 DEB (SYLDA), 41594

Orbit data source: Space-Track

ARIANE 5 DEB (SYLDA), 41594 is space debris in HEO originally from a launch on Sat, 18 Jun 2016 UTC launched from the French Guiana (FRGUI). Debris objects in space refer to the collection of defunct objects orbiting the Earth. Examples of debris include non-operational satellites, rocket bodies, and fragments generated from explosions, collisions, or faulty payload assembly.

Loading next visibility...
Identifier
41594, 2016-039D
Orbit
HEO
Country
Flag of FRFR
Related business
Manufacturer
ADS/Bremen
Mission
Spacecraft
Bus & Motor
SYLDA 5, Unknown motor
Mass
440 kg wet, 440 kg dry
Launch date (UTC)
2016-06-18 (10 years ago)
Launch vehicle
Unknown
Launch site
French Guiana (FRGUI)
Object type
Payload
Rocket body
Debris
Shape & HBR
Cyl, 2.8 m
Radar Cross Section
27.391 m², Large (>1 m²)

Expand to show TLE details & history
Last TLE update: 2 days ago

TLE from 2 days ago
0 ARIANE 5 DEB (SYLDA)
1 41594U 16039D   26171.31365663  .00000858  00000-0  89865-3 0  9992
2 41594   5.9659 277.2958 5688328  61.1055 344.0007  4.39035872116699
Epoch: 2026-06-20T07:31Z
TLE epoch observation values (Epoch: 2026-06-20T07:31:39.932Z)
Latitude
-0°
Longitude
-104.04568°
Altitude
1,976.825 km
Speed
8.373 km/s
True Right ascension
18h 29m 36s
True Declination
0° 00' 00"
Sunlit
Object was in full shadow at epoch
Visualization orbit readout
Latitude
Unknown
Longitude
Unknown
Altitude
Unknown
Speed
Unknown
Apparent Right ascension
Unknown
Apparent Declination
Unknown
Sunlit
N/A
Visualization observer readout
Local Sidereal Time
23:19:26
Azimuth
Unknown
Elevation
Unknown
Doppler factor
Unknown
Orbital elements
Apogee altitude
18,345.653 km
Perigee altitude
416.779 km
Semi-major axis
15,759.353 km
Eccentricity
0.56883
Inclination
5.9659°
RAAN
277.2958°
Arg. of periapsis
61.1055°
True anomaly
298.84212°
Mean anomaly
344.0007°
Eccentric anomaly
325.57636°
Mean motion
1.09707 °/min
Orbital period
328.15 mins
BSTAR
0.00089865
Loading maneuver chart data...
Computing Atmospheric mass density...
Loading historical data...
Loading historical data...
Loading historical data...
Loading historical data...
Loading historical data...
Loading historical data...
Loading historical data...
Other satellites on launch #39 in the year 2016 (2016-06-18 UTC)

Documentation

Showing up to 5 results
|